Location: *
(47.8307°S, 178.3954°E)
Time: 07:32:50
(UTC+00:00)

Cosmos 1437 Rocket - Pass Details

Date: 12 August 2024
Orbit: 474 x 524 km, 81.2° (Epoch: 19 September)

Event Time Altitude Azimuth Distance (km) Brightness Sun altitude
Rises 17:50:24 0° 358° (N) 2,619 6.3 -14.3°
Maximum altitude 17:56:18 64° 82° (E) 570 3.2 -13.3°
Drops below altitude 10° 18:00:03 10° 163° (SSE) 1,727 5.5 -12.7°
Sets 18:02:11 0° 165° (SSE) 2,610 6.4 -12.3°
